Flag for Germany Weather past 2 weeks in Wiesbaden, Hesse, Germany

Now
59 °F

Clear.


Feels Like: 59 °F
Forecast: 54 / 72 °F
Wind: 2 mph from Northeast

Location: Wiesbaden Airport

Current Time: Aug 27, 2014 at 11:11:54 PM

Latest Report: Aug 27, 2014 at 9:58 PM


Visibility: N/A

Pressure: 30.06 "Hg

Humidity: 77%

Dew point: 52 °F

Location of WiesbadenLocation

Historic Weather in Wiesbaden — Graph

°F

Wiesbaden temperature yesterday

Maximum temperature yesterday: 68 °F (at 4:58 PM)
Minimum temperature yesterday: 54 °F (at 1:58 AM)
Average temperature yesterday: 59 °F

Past Weeks' High & Low Weather Summary

 TemperatureHumidityPressure
High69 °F (Aug 27, 4:58 PM)100% (Aug 13, 6:04 PM)30.14 "Hg (Aug 13, 6:04 PM)
Low45 °F (Aug 22, 6:58 AM)43% (Aug 21, 6:58 PM)29.66 "Hg (Aug 13, 3:58 PM)
Average59 °F79%29.93 "Hg
* Reported Aug 12 9:58 PM — Aug 27 9:58 PM, Wiesbaden, Weather by CustomWeather, © 2014

Note: Actual official high and low records may vary slightly from our data, if they occured in-between our weather recording intervals... More about our weather records

Advertising

Wiesbaden weather history for previous 24 hours

 ConditionsComfort  
Time TempWeatherWind HumidityBarometerVisibility
9:58 PM
Aug 27
59 °FClear.2 mph77%30.06 "HgN/A
8:58 PM63 °FSunny.3 mph73%30.04 "HgN/A
7:58 PM65 °FSunny.3 mph65%30.04 "HgN/A
6:58 PM68 °FPartly sunny.2 mph58%30.04 "HgN/A
5:58 PM69 °FPassing clouds.3 mph54%30.03 "HgN/A
4:58 PM69 °FScattered clouds.No wind53%30.03 "HgN/A
3:58 PM68 °FPassing clouds.6 mph56%30.03 "HgN/A
2:58 PM67 °FPassing clouds.5 mph58%30.03 "HgN/A
1:58 PM67 °FPassing clouds.3 mph62%30.03 "HgN/A
12:58 PM64 °FPassing clouds.3 mph68%30.03 "HgN/A
11:58 AM64 °FPartly sunny.8 mph72%30.03 "HgN/A
10:58 AM61 °FPassing clouds.6 mph77%30.01 "HgN/A
9:58 AM61 °FMostly cloudy.7 mph80%29.99 "HgN/A
8:58 AM57 °FOvercast.2 mph89%29.97 "HgN/A
7:58 AM55 °FOvercast.No wind94%29.94 "HgN/A
6:58 AM55 °FOvercast.3 mph96%29.92 "HgN/A
5:58 AM55 °FOvercast.5 mph97%29.89 "HgN/A
4:58 AM55 °FPartly cloudy.3 mph100%29.86 "HgN/A
3:58 AM57 °FLight rain. Overcast.5 mph94%29.83 "HgN/A
2:58 AM57 °FRain. Overcast.6 mph94%29.82 "HgN/A
1:58 AM57 °FRain. Overcast.5 mph100%29.80 "HgN/A
12:58 AM57 °FLight rain. Overcast.3 mph100%29.79 "HgN/A
11:58 PM
Aug 26
57 °FLight rain. Overcast.6 mph100%29.78 "HgN/A
11:03 PM57 °FHeavy rain. Fog.8 mph100%29.77 "Hg2 mi
Weather by CustomWeather, © 2014

See weather overviewHow to use our weather pages